Regional Weather Roundup
Issued by NWS

Home | Current Version | Previous Version | Text Only | Print | Product List | Glossary On
Versions: 1 2 3 4 5 6 7 8 9 10 11 12 13 14 15 16 17 18 19 20 21 22 23 24 25 26 27 28 29 30 31 32 33 34 35 36 37 38 39 40 41 42 43 44 45 46 47 48 49 50
000
ASUS45 KTFX 201204
RWRMT
MONTANA HOURLY WEATHER ROUNDUP
NATIONAL WEATHER SERVICE GREAT FALLS MT
604 AM MDT SAT SEP 20 2014

NOTE: "FAIR" INDICATES FEW OR NO CLOUDS BELOW 12000 FEET WITH NO
SIGNIFICANT WEATHER AND/OR OBSTRUCTIONS TO VISIBILITY.

* THESE STATIONS ARE NOT UNDER NWS QUALITY CONTROL. THEY DO NOT
   REPORT WEATHER SUCH AS PRECIPITATION OR FOG.

MTZ001>007-043-201300-
WEST OF THE DIVIDE
CITY           SKY/WX    TMP DP  RH WIND       PRES   REMARKS
KALISPELL      PTCLDY    41  41 100 CALM      30.19R
MISSOULA       PTCLDY    46  43  89 CALM      30.23R
BUTTE          CLEAR     37  36  96 SE5       30.30R WCI  33
MULLAN PASS    PTCLDY    50  43  77 N5        30.27S
* ESSEX        N/A       47  44  89 VRB2       N/A
* LINCOLN      N/A       40  38  93 N2G8       N/A
* LOOKOUT PASS N/A       46  44  93 N/A        N/A
* POLSON       N/A       50  45  83 N/A        N/A
* RONAN APT    MOCLDY    45  39  80 N/A        N/A
* SEELEY LAKE  N/A       36  35  96 N/A        N/A
* THOMP F APT  PTCLDY    48  38  68 NE3G8      N/A
$$

MTZ008-052>055-201300-
SOUTHWEST MONTANA
CITY           SKY/WX    TMP DP  RH WIND       PRES   REMARKS
BOZEMAN        CLEAR     43  39  86 S8        30.25R
DILLON         CLEAR     45  39  80 S7        30.25S
W YELLOWSTONE  CLEAR     32  32 100 CALM      30.33R
* THREE FORKS  CLEAR     37  21  52 N/A        N/A
* BOULDER HILL N/A       49  36  61 SW6        N/A
* MONIDA PASS  N/A       40  37  89 W4         N/A
* RAYNOLDS PAS N/A       42  42 100 N2         N/A
* WHITEHALL    N/A       44  39  83 N5G10      N/A
* WISE RIVER   N/A       38  36  93 SW3        N/A
$$

MTZ009>010-012-014-046-048-049-054-201300-
EAST SLOPES AND CENTRAL MONTANA
CITY           SKY/WX    TMP DP  RH WIND       PRES   REMARKS
CUT BANK       PTCLDY    48  39  71 N12       30.17R
GREAT FALLS    CLEAR     50  41  71 SW12      30.15R
HELENA         CLEAR     48  43  83 CALM      30.20R
MALMSTROM AFB  CLEAR     52  41  66 SW13      30.16R
* CONRAD       PTCLDY    50  43  77 N/A        N/A
* EAST GLACIER N/A       54  42  64 NW6        N/A
* MONARCH      N/A       45  35  68 S6         N/A
* PENDROY      N/A       54  42  64 NW12       N/A
* ROGERS PASS  N/A       50  41  71 W2G7       N/A
* SAINT MARY   N/A       57  41  55 S7G15      N/A
* SWEET GRASS  N/A       50  42  74 W5         N/A
$$

MTZ011-013-016-021-035-040-045-047-050-051-201300-
NORTH CENTRAL MONTANA
CITY           SKY/WX    TMP DP  RH WIND       PRES   REMARKS
HAVRE          CLEAR     55  45  69 N5        30.10R
LEWISTOWN      CLEAR     48  39  71 W12       30.16R
* CHESTER      N/A       51  40  66 N5         N/A
* DENTON       N/A       54  42  64 W12        N/A
* GEYSER       N/A       48  40  74 W9         N/A
* JUDITH GAP   N/A       49  38  66 W7         N/A
* LOMA         N/A       51  41  69 W3G8       N/A
$$

MTZ017>020-022>027-061-062-201300-
NORTHEAST MONTANA
CITY           SKY/WX    TMP DP  RH WIND       PRES   REMARKS
GLASGOW        CLEAR     52  45  77 N10       29.99R
JORDAN         CLEAR     54  45  72 W10       30.01R
SIDNEY         CLEAR     57  48  72 W10       29.90S
WOLF POINT     CLEAR     52  46  80 SW8       29.94R
* BEAVER HILL  N/A       53  46  77 SW12       N/A
* CIRCLE       N/A       51  46  83 N/A        N/A
* LINDSAY DVD  N/A       57  44  62 W20G27     N/A
* SACO         N/A       50  45  83 NW11       N/A
$$

MTZ028>042-056>058-201300-
SOUTHCENTRAL AND SOUTHEAST MONTANA
CITY           SKY/WX    TMP DP  RH WIND       PRES   REMARKS
BAKER          CLEAR     54  45  72 W14       30.00R
BILLINGS       PTCLDY    55  41  59 SW12      30.15R
LIVINGSTON     PTCLDY    46  39  77 W10       30.21S
MILES CITY     CLEAR     55  45  69 NW9       30.03R
* LAUREL APT   MOCLDY    48  39  71 W5         N/A
* ROUNDUP APT  CLEAR     48  39  71 N/A        N/A
* ALZADA       N/A       52  46  80 SW3        N/A
* HYSHAM       N/A       52  44  74 W4         N/A
* LAME DEER    N/A       54  44  69 W9         N/A
* REED POINT   N/A       59  39  48 W6G14      N/A
* ROSCOE HILL  N/A       52  36  55 SW6        N/A
$$

REGIONAL REPORTS...DAKOTAS
CITY           SKY/WX    TMP DP  RH WIND       PRES   REMARKS
WILLISTON      CLOUDY    54  52  93 SW9       29.85S
DICKINSON      PTCLDY    54  46  74 W10       29.89S
BEACH          N/A       54  48  80 W15       29.95R
CROSBY         MOCLDY    54  54 100 NW14G21   29.90R
TIOGA          MOCLDY    50  50 100 W3        29.87S
WATFORD CITY   MOCLDY    52  50  93 W8        29.86R
BISMARCK       FAIR      54  50  86 W3        29.87R
GRAND FORKS    CLOUDY    52  50  93 SW5       29.79R
FARGO          PTCLDY    52  50  93 SW3       29.81R
BUFFALO SD     CLEAR     54  46  74 W14       29.93R
RAPID CITY     FAIR      54  45  72 NW6       30.05R
$$

REGIONAL REPORTS...WYOMING/IDAHO/WASHINGTON
CITY           SKY/WX    TMP DP  RH WIND       PRES   REMARKS
GILLETTE       CLEAR     52  45  77 W9        30.13R
SHERIDAN       CLEAR     52  43  72 NW10      30.14R
CODY           PTCLDY   N/A N/A N/A N/A        N/A
YELLOWSTONE LA CLEAR     34  32  92 NW3       30.40R
SALMON         PTCLDY    45  39  80 CALM      30.24R
MULLAN PASS    PTCLDY    50  43  77 N5        30.27S
SAND POINT     PTCLDY    45  45 100 CALM      30.17R
SPOKANE        FAIR      57  46  67 SE8       30.14R

$$




USA.gov is the U.S. government's official web portal to all federal, state and local government web resources and services.